Regional Weather Roundup
Issued by NWS

Home | Current Version | Previous Version | Graphics & Text | Print | Product List | Glossary On
Versions: 1 2 3 4 5 6 7 8 9 10 11 12 13 14 15 16 17 18 19 20 21 22 23 24 25 26 27 28 29 30 31 32 33 34 35 36 37 38 39 40 41 42 43 44 45 46 47 48 49 50
000
ASUS43 KFSD 201910
RWRSD

WEATHER ROUNDUP FOR SOUTH DAKOTA
NATIONAL WEATHER SERVICE SIOUX FALLS SD
200 PM CDT MON OCT 20 2014

NOTE: "FAIR" INDICATES FEW OR NO CLOUDS BELOW 12,000 FEET WITH NO
SIGNIFICANT WEATHER AND/OR OBSTRUCTIONS TO VISIBILITY.


SDZ001>005-009-010-012>017-202000-
NORTHWEST AND NORTH CENTRAL SOUTH DAKOTA

CITY           SKY/WX    TMP DP  RH WIND       PRES   REMARKS
BUFFALO          N/A     73  41  31 SE15      29.89F
FAITH            N/A     71  41  33 SE22      29.98F
MOBRIDGE       SUNNY     70  37  29 S16       30.01F
$$

SDZ012>016-024>037-041>051-057-063-072>074-202000-
SOUTHWEST AND SOUTH CENTRAL SOUTH DAKOTA

CITY           SKY/WX    TMP DP  RH WIND       PRES   REMARKS
RAPID CTY ARPT SUNNY     72  42  34 SE17      29.98F
PIERRE         SUNNY     71  38  29 SE14      30.03F
CUSTER         SUNNY     70  36  28 SW8       30.08F
ELLSWORTH AFB  SUNNY     72  44  36 S16       29.97F
PHILIP         SUNNY     76  42  29 S16       29.99F
PINE RIDGE     SUNNY     77  40  26 S16       30.02F
SPEARFISH      FAIR      72  48  43 NE7       29.99F
WINNER         FAIR      74  38  27 S10       30.06F
$$

SDZ004>011-016>023-039-040-202000-
NORTHEAST SOUTH DAKOTA

CITY           SKY/WX    TMP DP  RH WIND       PRES   REMARKS
ABERDEEN       SUNNY     70  37  29 CALM      30.05F
WATERTOWN      SUNNY     68  38  33 NW12      30.05F
SISSETON         N/A     68  41  37 N7        30.03F
$$

SDZ017-020-022-023-036>040-048>070-202000-
SOUTHEAST SOUTH DAKOTA

CITY           SKY/WX    TMP DP  RH WIND       PRES   REMARKS
SIOUX FALLS    MOSUNNY   69  41  36 W8        30.05F
HURON          SUNNY     69  35  28 CALM      30.06F
CHAMBERLAIN    SUNNY     70  34  26 S9        30.06F
MITCHELL       SUNNY     69  35  28 SW3       30.07F
YANKTON        SUNNY     68  37  32 CALM      30.07F
$$

ABBREVIATIONS USED IN REMARKS
   TC - TEMPERATURE IN CELSIUS
  WCI - WIND CHILL INDEX
   HX - HEAT INDEX
  VSB - VISIBILITY




USA.gov is the U.S. government's official web portal to all federal, state and local government web resources and services.